GW4915 Weather Reports


time (UTC)temp
F
wind
direction
speed
knots
gust
knots
rain 1hr
in
rain 24hr
in
rain mn
in
humidity
%
barometer
mb
20260503193735 65 268 6.1 8.7 0.00 0.00 0.00 37 1009.5
20260503193231 63 263 4.3 6.1 0.00 0.00 0.00 38 1009.7
20260503192727 64 209 6.1 7.8 0.00 0.00 0.00 37 1009.9
20260503192222 64 249 5.2 6.1 0.00 0.00 0.00 37 1009.6
20260503191719 65 317 1.7 2.6 0.00 0.00 0.00 37 1009.9
20260503191216 64 174 3.5 7.8 0.00 0.00 0.00 36 1010.3
20260503190713 64 258 9.6 11.3 0.00 0.00 0.00 36 1009.9
20260503190210 64 258 4.3 5.2 0.00 0.00 0.00 37 1009.9
20260503185707 64 233 4.3 5.2 0.00 0.00 0.00 37 1009.9
20260503185202 65 226 8.7 9.6 0.00 0.00 0.00 36 1010.2
20260503184657 64 211 3.5 5.2 0.00 0.00 0.00 37 1010.1
20260503184154 64 262 4.3 6.1 0.00 0.00 0.00 37 1010.4
20260503183650 63 292 8.7 13.0 0.00 0.00 0.00 37 1010.4
20260503183148 63 274 3.5 5.2 0.00 0.00 0.00 39 1010.4
20260503182645 63 206 5.2 7.0 0.00 0.00 0.00 38 1010.5
20260503182144 62 272 1.7 2.6 0.00 0.00 0.00 39 1010.9
20260503181640 62 190 5.2 6.1 0.00 0.00 0.00 39 1010.7
20260503181137 61 213 5.2 7.0 0.00 0.00 0.00 40 1010.7
20260503180634 62 223 8.7 12.2 0.00 0.00 0.00 38 1011.2
20260503180132 62 264 7.8 8.7 0.00 0.00 0.00 38 1011.1
20260503175629 62 193 8.7 13.0 0.00 0.00 0.00 39 1011.2
20260503175126 63 302 3.5 6.1 0.00 0.00 0.00 39 1011.1
20260503174622 62 297 2.6 4.3 0.00 0.00 0.00 40 1011.3
20260503174120 62 211 2.6 4.3 0.00 0.00 0.00 41 1011.2
20260503173614 60 273 7.0 8.7 0.00 0.00 0.00 41 1011.5
20260503173111 60 226 4.3 8.7 0.00 0.00 0.00 41 1011.6
20260503172608 60 202 7.8 8.7 0.00 0.00 0.00 40 1011.5
20260503172106 61 246 7.0 8.7 0.00 0.00 0.00 40 1011.7
20260503171602 61 219 6.1 7.0 0.00 0.00 0.00 40 1011.8
20260503171059 61 266 7.0 8.7 0.00 0.00 0.00 41 1012.0
20260503170555 60 260 5.2 6.1 0.00 0.00 0.00 40 1012.2
20260503150948 59 287 2.6 4.3 0.00 0.00 0.00 41 1012.9
20260503150445 59 274 4.3 7.0 0.00 0.00 0.00 40 1013.2
20260503131337 49 265 5.2 6.1 0.00 0.00 0.00 53 1013.5
20260503130835 48 226 3.5 4.3 0.00 0.00 0.00 54 1013.6
20260503130333 48 244 2.6 4.3 0.00 0.00 0.00 54 1013.6
20260503110726 37 257 2.6 2.6 0.00 0.00 0.00 68 1013.8
20260503110224 37 230 0.9 0.9 0.00 0.00 0.00 70 1014.0
20260503100149 35 256 0.9 0.9 0.00 0.00 0.00 73 1014.4
20260503090109 34 278 0.0 0.0 0.00 0.00 0.00 75 1014.4
20260503081544 34 277 0.0 0.0 0.00 0.00 0.00 75 1014.8
20260503081042 34 277 0.0 0.0 0.00 0.00 0.00 75 1014.7
20260503080537 34 277 0.0 0.0 0.00 0.00 0.00 75 1014.8
20260503072512 35 273 0.0 0.0 0.00 0.00 0.00 73 1014.8
20260503072009 35 273 0.0 0.0 0.00 0.00 0.00 73 1014.9
20260503071506 35 273 0.0 0.0 0.00 0.00 0.00 73 1014.8
20260503071002 35 275 0.0 0.0 0.00 0.00 0.00 73 1014.9
20260503070459 36 275 0.0 0.0 0.00 0.00 0.00 73 1014.9
20260503054917 36 277 0.0 0.0 0.00 0.00 0.00 74 1015.3
20260503054413 36 279 0.0 0.0 0.00 0.00 0.00 73 1015.5
20260503053911 36 279 0.0 0.0 0.00 0.00 0.00 73 1015.4
20260503053409 37 277 0.0 0.0 0.00 0.00 0.00 72 1015.5
20260503052905 37 277 0.0 0.0 0.00 0.00 0.00 72 1015.5
20260503052402 37 276 0.0 0.0 0.00 0.00 0.00 71 1015.4
20260503051858 38 275 0.0 0.0 0.00 0.00 0.00 71 1015.7
20260503051354 38 267 0.0 0.9 0.00 0.00 0.00 71 1015.5
20260503050852 38 280 0.0 0.0 0.00 0.00 0.00 70 1015.6
20260503050348 39 270 0.0 0.0 0.00 0.00 0.00 70 1015.6
20260503045845 39 264 0.0 0.9 0.00 0.00 0.00 70 1015.7
20260503045343 39 269 0.0 0.0 0.00 0.00 0.00 69 1015.7
20260503044839 39 272 0.0 0.0 0.00 0.00 0.00 68 1015.5
20260503044336 39 270 0.0 0.0 0.00 0.00 0.00 68 1015.6
20260503043833 39 259 0.9 0.9 0.00 0.00 0.00 67 1015.7
20260503043330 39 268 0.0 0.0 0.00 0.00 0.00 67 1015.5
20260503042826 39 268 0.0 0.0 0.00 0.00 0.00 67 1015.5
20260503042323 39 265 0.0 0.0 0.00 0.00 0.00 67 1015.5
20260503041819 39 269 0.0 0.0 0.00 0.00 0.00 67 1015.7
20260503041317 39 269 0.0 0.0 0.00 0.00 0.00 67 1015.9
20260503040814 39 270 0.0 0.0 0.00 0.00 0.00 67 1015.8
20260503040312 39 265 0.0 0.9 0.00 0.00 0.00 68 1015.8
20260503035808 39 270 0.0 0.0 0.00 0.00 0.00 67 1015.9
20260503035306 39 270 0.0 0.0 0.00 0.00 0.00 67 1015.8
20260503034803 39 271 0.0 0.0 0.00 0.00 0.00 67 1015.8
20260503034300 39 271 0.0 0.0 0.00 0.00 0.00 67 1015.8
20260503033757 39 270 0.0 0.0 0.00 0.00 0.00 67 1015.9
20260503033255 39 270 0.0 0.0 0.00 0.00 0.00 67 1015.8
20260503032753 39 269 0.0 0.0 0.00 0.00 0.00 67 1015.7
20260503032251 38 274 0.9 0.9 0.00 0.00 0.00 69 1015.8
20260503031748 37 280 0.0 0.0 0.00 0.00 0.00 69 1015.9
20260503031246 38 280 0.0 0.0 0.00 0.00 0.00 68 1015.8
20260503030742 38 280 0.0 0.0 0.00 0.00 0.00 67 1015.8
20260503030239 39 280 0.0 0.0 0.00 0.00 0.00 67 1015.9
20260503025735 39 280 0.0 0.0 0.00 0.00 0.00 68 1015.8
20260503025233 38 280 0.0 0.0 0.00 0.00 0.00 68 1015.9
20260503024730 39 280 0.0 0.0 0.00 0.00 0.00 67 1016.1
20260503024227 39 280 0.0 0.0 0.00 0.00 0.00 68 1016.0
20260503023724 39 280 0.0 0.0 0.00 0.00 0.00 68 1015.9
20260503023220 38 280 0.0 0.0 0.00 0.00 0.00 68 1016.0
20260503022717 39 280 0.0 0.0 0.00 0.00 0.00 68 1016.0
20260503022216 38 280 0.0 0.0 0.00 0.00 0.00 68 1016.1
20260503021714 39 280 0.0 0.0 0.00 0.00 0.00 67 1016.1
20260503021210 39 280 0.0 0.0 0.00 0.00 0.00 67 1016.1
20260503020708 39 280 0.0 0.0 0.00 0.00 0.00 66 1016.1
20260503020205 39 280 0.0 0.0 0.00 0.00 0.00 65 1015.8
20260503015702 40 280 0.0 0.0 0.00 0.00 0.00 64 1015.8
20260503015159 40 280 0.0 0.0 0.00 0.00 0.00 64 1015.7
20260503014654 40 280 0.0 0.0 0.00 0.00 0.00 64 1015.7
20260503014152 39 280 0.0 0.0 0.00 0.00 0.00 65 1015.8
20260503013649 39 280 0.0 0.0 0.00 0.00 0.00 63 1015.7
20260503013147 40 280 0.0 0.0 0.00 0.00 0.00 62 1015.7
20260503012644 41 280 0.0 0.0 0.00 0.00 0.00 61 1015.8
20260503012141 41 280 0.0 0.0 0.00 0.00 0.00 60 1015.7
20260503011637 42 280 0.0 0.0 0.00 0.00 0.00 59 1015.6
20260503011134 42 280 0.0 0.0 0.00 0.00 0.00 58 1015.7
20260503010630 42 281 0.0 0.0 0.00 0.00 0.00 57 1015.7
20260503010128 43 281 0.0 0.0 0.00 0.00 0.00 56 1015.5
20260503005625 43 281 0.0 0.0 0.00 0.00 0.00 55 1015.5
20260503005122 43 280 0.0 0.0 0.00 0.00 0.00 54 1015.6
20260503004618 44 279 0.0 0.0 0.00 0.00 0.00 52 1015.4
20260503004117 45 279 0.0 0.0 0.00 0.00 0.00 51 1015.4
20260503003614 45 279 0.0 0.0 0.00 0.00 0.00 49 1015.6
20260503003110 46 280 0.0 0.0 0.00 0.00 0.00 49 1015.3
20260503002607 46 280 0.0 0.0 0.00 0.00 0.00 48 1015.4
20260503002104 47 283 0.0 0.0 0.00 0.00 0.00 47 1015.3
20260503001600 47 282 0.9 1.7 0.00 0.00 0.00 46 1015.3
20260503001058 47 300 3.5 4.3 0.00 0.00 0.00 45 1015.4
20260503000555 47 318 2.6 4.3 0.00 0.00 0.00 45 1015.2
20260503000052 48 286 2.6 2.6 0.00 0.00 0.00 46 1015.4
20260502235548 48 280 2.6 2.6 0.00 0.00 0.00 45 1015.3
20260502235046 48 278 0.9 0.9 0.00 0.00 0.00 46 1015.4
20260502234542 48 287 2.6 2.6 0.00 0.00 0.00 45 1015.3
20260502234040 48 335 2.6 4.3 0.00 0.00 0.00 45 1015.3
20260502233540 48 298 1.7 1.7 0.00 0.00 0.00 45 1015.3
20260502233037 48 333 3.5 4.3 0.00 0.00 0.00 45 1015.3
20260502232533 48 310 2.6 2.6 0.00 0.00 0.00 45 1015.4
20260502232031 48 287 2.6 2.6 0.00 0.00 0.00 45 1015.5
20260502231528 48 242 2.6 2.6 0.00 0.00 0.00 45 1015.5
20260502231026 48 315 1.7 2.6 0.00 0.00 0.00 45 1015.5
20260502230524 48 319 4.3 7.0 0.00 0.00 0.00 45 1015.5
20260502230022 48 304 1.7 2.6 0.00 0.00 0.00 45 1015.6
20260502225517 48 308 4.3 5.2 0.00 0.00 0.00 45 1015.5
20260502225014 48 329 4.3 5.2 0.00 0.00 0.00 44 1015.3
20260502224510 48 303 4.3 5.2 0.00 0.00 0.00 44 1015.5
20260502224008 48 280 2.6 2.6 0.00 0.00 0.00 43 1015.4
20260502223505 49 214 2.6 4.3 0.00 0.00 0.00 45 1015.4
20260502223004 49 328 4.3 5.2 0.00 0.00 0.00 45 1015.6
20260502222500 49 329 6.1 7.0 0.00 0.00 0.00 44 1015.6
20260502221956 48 325 2.6 2.6 0.00 0.00 0.00 45 1015.6
20260502221452 48 316 2.6 5.2 0.00 0.00 0.00 45 1015.4
20260502220950 48 282 0.9 1.7 0.00 0.00 0.00 45 1015.5
20260502220445 48 292 4.3 6.1 0.00 0.00 0.00 45 1015.3
20260502215942 48 326 0.9 1.7 0.00 0.00 0.00 46 1015.5
20260502215440 48 293 1.7 1.7 0.00 0.00 0.00 45 1015.5
20260502214936 48 328 4.3 5.2 0.00 0.00 0.00 44 1015.5
20260502214433 49 317 4.3 7.0 0.00 0.00 0.00 44 1015.6
20260502213931 49 305 4.3 6.1 0.00 0.00 0.00 45 1015.7
20260502213427 48 309 2.6 2.6 0.00 0.00 0.00 44 1015.6
20260502212926 48 293 1.7 1.7 0.00 0.00 0.00 45 1015.7
20260502212424 48 347 5.2 7.0 0.00 0.00 0.00 44 1015.7
20260502211921 48 313 1.7 1.7 0.00 0.00 0.00 44 1015.5
20260502211417 48 33 0.9 1.7 0.00 0.00 0.00 46 1015.6
20260502210914 48 293 2.6 2.6 0.00 0.00 0.00 44 1015.7
20260502210411 48 296 3.5 5.2 0.00 0.00 0.00 44 1015.7
20260502205908 48 289 2.6 2.6 0.00 0.00 0.00 44 1015.8
20260502205404 48 296 5.2 6.1 0.00 0.00 0.00 45 1015.6
20260502204902 48 353 2.6 4.3 0.00 0.00 0.00 44 1015.8
20260502204358 48 315 4.3 7.0 0.00 0.00 0.00 44 1015.7
20260502203856 48 249 1.7 2.6 0.00 0.00 0.00 45 1015.7
20260502203353 47 294 4.3 5.2 0.00 0.00 0.00 45 1015.8
20260502202849 48 319 7.8 8.7 0.00 0.00 0.00 44 1015.7
20260502202347 48 282 4.3 6.1 0.00 0.00 0.00 44 1015.9
20260502201844 48 315 2.6 2.6 0.00 0.00 0.00 43 1016.1
20260502201340 48 334 1.7 1.7 0.00 0.00 0.00 44 1015.8
20260502200837 48 303 2.6 4.3 0.00 0.00 0.00 43 1016.2
20260502200332 47 287 1.7 1.7 0.00 0.00 0.00 43 1016.0
20260502195831 47 326 2.6 4.3 0.00 0.00 0.00 44 1016.3
20260502195327 48 300 1.7 1.7 0.00 0.00 0.00 43 1016.3
20260502194824 47 272 1.7 1.7 0.00 0.00 0.00 45 1016.2
20260502194321 47 323 4.3 6.1 0.00 0.00 0.00 43 1016.1